SPWIW EPKK-EPWA

Flight info

Callsign SPWIW
Flight time N/A
Altitude 23000
Route POBOK M985 KOTEK M866 LOGDA
Aircraft SF50/L-SDGRWY/L

Departure

Time 2026-05-07 21:48
Airport Kraków John Paul II International Airport (EPKK)

Arrival

Time N/A
Airport Warsaw Chopin Airport (EPWA)
Time Latitude Longitude Altitude Speed Heading
2026-05-07 21:26 50.07491 19.80276 795 ft 0 kts 167°
2026-05-07 21:40 50.07486 19.80277 795 ft 1 kts 170°
2026-05-07 21:41 50.07462 19.80285 795 ft 5 kts 174°
2026-05-07 21:41 50.07433 19.80251 795 ft 7 kts 251°
2026-05-07 21:41 50.07420 19.80159 795 ft 10 kts 253°
2026-05-07 21:41 50.07399 19.80043 795 ft 9 kts 255°
2026-05-07 21:42 50.07415 19.79970 795 ft 6 kts 322°
2026-05-07 21:42 50.07446 19.79955 795 ft 4 kts 345°
2026-05-07 21:42 50.07513 19.79933 795 ft 13 kts 334°
2026-05-07 21:42 50.07609 19.79905 795 ft 12 kts 352°
2026-05-07 21:43 50.07680 19.79881 795 ft 8 kts 359°
2026-05-07 21:43 50.07702 19.79857 795 ft 6 kts 302°
2026-05-07 21:43 50.07698 19.79732 795 ft 13 kts 255°
2026-05-07 21:43 50.07681 19.79617 795 ft 15 kts 258°
2026-05-07 21:44 50.07657 19.79469 795 ft 16 kts 258°
2026-05-07 21:44 50.07632 19.79280 795 ft 19 kts 255°
2026-05-07 21:44 50.07598 19.79026 795 ft 34 kts 259°
2026-05-07 21:44 50.07543 19.78632 795 ft 37 kts 258°
2026-05-07 21:45 50.07491 19.78263 795 ft 29 kts 255°
2026-05-07 21:45 50.07526 19.78089 795 ft 9 kts
2026-05-07 21:45 50.07576 19.78090 795 ft 5 kts
2026-05-07 21:45 50.07599 19.78091 795 ft 0 kts 354°
2026-05-07 21:46 50.07608 19.78091 795 ft 2 kts
2026-05-07 21:46 50.07614 19.78093 795 ft 0 kts 13°
2026-05-07 21:46 50.07616 19.78093 795 ft 0 kts 15°
2026-05-07 21:46 50.07629 19.78092 795 ft 5 kts
2026-05-07 21:47 50.07708 19.78107 795 ft 14 kts 35°
2026-05-07 21:47 50.07764 19.78422 795 ft 60 kts 77°
2026-05-07 21:47 50.07898 19.79338 830 ft 105 kts 77°
2026-05-07 21:47 50.08001 19.80509 1254 ft 113 kts 88°
2026-05-07 21:48 50.07969 19.81750 1714 ft 119 kts 97°
2026-05-07 21:48 50.07807 19.83103 2062 ft 135 kts 91°
2026-05-07 21:48 50.08021 19.84525 2568 ft 139 kts 72°
2026-05-07 21:48 50.08242 19.86065 3012 ft 147 kts 87°
2026-05-07 21:49 50.08182 19.87721 3283 ft 167 kts 92°
2026-05-07 21:49 50.08592 19.89520 3318 ft 197 kts 49°
2026-05-07 21:49 50.09754 19.90926 3345 ft 227 kts 28°
2026-05-07 21:49 50.11205 19.92048 3528 ft 235 kts 22°
2026-05-07 21:50 50.12722 19.93061 3885 ft 235 kts 21°
2026-05-07 21:50 50.14240 19.94027 4236 ft 235 kts 20°
2026-05-07 21:50 50.15745 19.94974 4587 ft 235 kts 20°
2026-05-07 21:50 50.17255 19.95923 4937 ft 235 kts 19°
2026-05-07 21:51 50.18782 19.96878 5292 ft 234 kts 19°
2026-05-07 21:51 50.20293 19.97825 5642 ft 234 kts 19°
2026-05-07 21:51 50.21787 19.98764 5992 ft 230 kts 19°
2026-05-07 21:51 50.23243 19.99680 6330 ft 223 kts 19°
2026-05-07 21:52 50.24662 20.00570 6675 ft 218 kts 19°
2026-05-07 21:52 50.26066 20.01450 7027 ft 216 kts 19°
2026-05-07 21:52 50.27458 20.02326 7377 ft 215 kts 19°
2026-05-07 21:52 50.28843 20.03201 7727 ft 214 kts 19°
2026-05-07 21:53 50.30229 20.04075 8077 ft 213 kts 19°
2026-05-07 21:53 50.31599 20.04937 8426 ft 212 kts 19°
2026-05-07 21:53 50.32973 20.05806 8777 ft 211 kts 19°
2026-05-07 21:53 50.34323 20.06656 9125 ft 210 kts 19°
2026-05-07 21:54 50.35714 20.07534 9164 ft 224 kts 19°
2026-05-07 21:54 50.37193 20.08470 9195 ft 235 kts 19°
2026-05-07 21:54 50.38745 20.09452 9251 ft 242 kts 19°
2026-05-07 21:54 50.40324 20.10451 9321 ft 247 kts 19°
2026-05-07 21:55 50.41926 20.11465 9400 ft 250 kts 20°
2026-05-07 21:55 50.43554 20.12497 9484 ft 253 kts 20°
2026-05-07 21:55 50.45191 20.13536 9566 ft 254 kts 20°
2026-05-07 21:55 50.46855 20.14594 9587 ft 261 kts 20°
2026-05-07 21:56 50.48576 20.15687 9633 ft 265 kts 20°
2026-05-07 21:56 50.50289 20.16776 9738 ft 266 kts 20°
2026-05-07 21:56 50.51994 20.17861 9842 ft 266 kts 20°
2026-05-07 21:56 50.53711 20.18957 9942 ft 267 kts 19°
2026-05-07 21:57 50.55439 20.20054 9980 ft 269 kts 20°
2026-05-07 21:57 50.57178 20.21166 9985 ft 270 kts 20°
2026-05-07 21:57 50.58888 20.22370 9974 ft 269 kts 28°
2026-05-07 21:57 50.60599 20.23304 10010 ft 257 kts
2026-05-07 21:58 50.62316 20.24021 9982 ft 254 kts 13°
2026-05-07 21:58 50.64010 20.24820 9982 ft 251 kts 14°
2026-05-07 21:58 50.65633 20.25782 9985 ft 249 kts 20°
2026-05-07 21:58 50.67223 20.26841 9980 ft 247 kts 20°
2026-05-07 21:59 50.67609 20.27099 9985 ft 247 kts 21°
2026-05-07 21:59 50.69033 20.28053 9973 ft 246 kts 23°
2026-05-07 21:59 50.70593 20.29125 9981 ft 245 kts 23°
2026-05-07 21:59 50.72158 20.30202 9983 ft 246 kts 23°
2026-05-07 22:00 50.73728 20.31282 9983 ft 246 kts 23°
2026-05-07 22:00 50.75294 20.32407 9981 ft 246 kts 24°
2026-05-07 22:00 50.76859 20.33516 9983 ft 246 kts 24°
2026-05-07 22:00 50.78411 20.34601 9985 ft 246 kts 24°
2026-05-07 22:01 50.79975 20.35684 9987 ft 246 kts 23°
2026-05-07 22:01 50.81556 20.36776 10008 ft 245 kts 23°
2026-05-07 22:01 50.83116 20.37852 10009 ft 246 kts 23°
2026-05-07 22:01 50.84674 20.38926 10010 ft 246 kts 23°
2026-05-07 22:02 50.86245 20.40009 10012 ft 246 kts 23°
2026-05-07 22:02 50.87817 20.41093 10010 ft 246 kts 23°
2026-05-07 22:02 50.89389 20.42178 10010 ft 246 kts 23°
2026-05-07 22:02 50.90969 20.43269 10011 ft 246 kts 23°
2026-05-07 22:03 50.92543 20.44356 10010 ft 246 kts 23°
2026-05-07 22:03 50.94117 20.45445 10010 ft 246 kts 23°
2026-05-07 22:03 50.95696 20.46538 10010 ft 247 kts 23°
2026-05-07 22:03 50.97268 20.47627 10010 ft 247 kts 23°
2026-05-07 22:04 50.98850 20.48722 10010 ft 247 kts 23°
2026-05-07 22:04 51.00440 20.49825 9725 ft 251 kts 23°
2026-05-07 22:04 51.02042 20.50937 9396 ft 252 kts 23°
2026-05-07 22:04 51.03637 20.52044 9068 ft 249 kts 23°
2026-05-07 22:05 51.05222 20.53146 8742 ft 247 kts 23°
2026-05-07 22:05 51.06789 20.54237 8417 ft 246 kts 23°
2026-05-07 22:05 51.08351 20.55324 8093 ft 245 kts 23°
2026-05-07 22:05 51.09900 20.56402 7770 ft 244 kts 23°
2026-05-07 22:06 51.11449 20.57483 7444 ft 242 kts 23°
2026-05-07 22:06 51.13106 20.57902 7120 ft 241 kts
2026-05-07 22:06 51.14761 20.57984 6793 ft 240 kts
2026-05-07 22:06 51.16432 20.58055 6468 ft 240 kts
2026-05-07 22:07 51.18102 20.58124 6144 ft 240 kts
2026-05-07 22:07 51.19775 20.58195 5816 ft 239 kts
2026-05-07 22:07 51.21435 20.58265 5491 ft 239 kts
2026-05-07 22:07 51.23043 20.58852 5159 ft 237 kts 23°
2026-05-07 22:08 51.24552 20.59897 4839 ft 237 kts 25°
2026-05-07 22:08 51.26030 20.61050 4513 ft 236 kts 27°
2026-05-07 22:08 51.27482 20.62248 4190 ft 236 kts 28°
2026-05-07 22:08 51.28915 20.63464 4031 ft 228 kts 28°
2026-05-07 22:09 51.30281 20.64607 3998 ft 218 kts 21°
2026-05-07 22:09 51.31669 20.65466 4012 ft 207 kts 30°
2026-05-07 22:09 51.32955 20.66484 4008 ft 201 kts 27°
2026-05-07 22:09 51.34208 20.67447 4005 ft 196 kts 26°
2026-05-07 22:10 51.35420 20.68365 4007 ft 193 kts 26°
2026-05-07 22:10 51.36632 20.69271 4008 ft 190 kts 26°
2026-05-07 22:10 51.37828 20.70163 4008 ft 188 kts 26°
2026-05-07 22:10 51.39013 20.71040 4008 ft 186 kts 26°
2026-05-07 22:11 51.40189 20.71909 4007 ft 184 kts 25°
2026-05-07 22:11 51.92278 21.18838 3706 ft 201 kts 13°
2026-05-07 22:11 51.93535 21.18476 3949 ft 181 kts 337°
2026-05-07 22:11 51.94648 21.17557 4002 ft 177 kts 329°
2026-05-07 22:12 51.95676 21.16501 4008 ft 177 kts 325°
2026-05-07 22:12 51.95991 21.16158 4010 ft 177 kts 325°